sat.trackr.live / text

‹ back to catalog

STARLINK-5255

NORAD 54208 · 2022-141BD

PAYLOAD ACTIVE UNKNOWN

§ Identity

Operator
Country
US
Launch date
2022-10-28
Launch site
AFWTR
Launch vehicle
Mass (kg)
RCS (m²)

Purposes: comms

External: N2YO · Heavens-Above · Gunter

§ Orbital elements

Epoch: 2026-05-24T23:18:01.473696Z

Period
95.44 min
Inclination
53.2159°
Eccentricity
0.0001807
Mean motion
15.08799616 rev/d
Perigee alt
538.6 km
Apogee alt
541.1 km
Semi-major
6,918.0 km
B*
-3.4251e-4
RAAN
346.7300°
Arg perigee
90.5770°
Mean anomaly
269.5429°
Rev number
19,786

§ Raw data

STARLINK-52551 54208U 22141BD  26144.97085039 -.00005729  00000+0 -34251-3 0  99992 54208  53.2159 346.7300 0001807  90.5770 269.5429 15.08799616197863

JSON: /api/v1/satellites/54208 · /tle

For live sub-satellite position, see the globe view (requires WebGL).

§ Visibility from observer

Set your observer location to see the next 7 days of passes ≥ 10°. The values pass through the URL so the page stays shareable.

No JS? Fill the form by hand. The geolocation button needs JavaScript.